Regional Weather Roundup
Issued by NWS New Orleans/Baton Rouge, LA

Home | Current Version | Previous Version | Text Only | Print | Product List | Glossary Off
Versions: 1 2 3 4 5 6 7 8 9 10 11 12 13 14 15 16 17 18 19 20 21 22 23 24 25 26 27 28 29 30 31 32 33 34 35 36 37 38 39 40 41 42 43 44 45 46 47 48 49 50

460
ASUS44 KLIX 260901
RWRLIX
NEW ORLEANS REGIONAL WEATHER ROUNDUP
NATIONAL WEATHER SERVICE NEW ORLEANS LA
400 AM CDT SAT JUL 26 2014

NOTE: "FAIR" INDICATES FEW OR NO CLOUDS BELOW 12,000 FEET WITH NO
      SIGNIFICANT WEATHER AND/OR OBSTRUCTIONS TO VISIBILITY.
      SKY/WX - SKY CONDITION AND SIGNIFICANT WEATHER.
      TMP - AIR TEMPERATURE.     DP    - DEWPOINT TEMPERATURE.
      RH  - RELATIVE HUMIDITY.   PRES  - PRESSURE.
      HI  - HEAT INDEX.          WCI   - WIND CHILL INDEX.

*  THESE STATIONS ARE NOT NWS OR FAA STATIONS AND ARE NOT UNDER
   NWS QUALITY CONTROL.

LAZ038-040-048-061>063-065>067-069-261000-
SOUTHEAST LOUISIANA

CITY           SKY/WX    TMP DP  RH WIND       PRES   REMARKS
N.O. AUDUBON   NOT AVBL
N.O. INTL ARPT MOCLDY    79  75  87 SW6       30.01S
N.O. LAKEFRONT PTCLDY    81  76  84 SW9       30.01S
N.O. DOWNTOWN*   N/A     81  72  74 SW3       30.01F
SLIDELL        PTCLDY    76  74  93 CALM      30.00S
BATON ROUGE    MOCLDY    78  74  87 W3        30.01R
BOOTHVILLE     PTCLDY    82  76  81 W8        30.02S
BELLE CHASSE   PTCLDY    77  74  90 SW5       30.00F
BOGALUSA*        N/A     76  73  88 CALM      30.03R FOG
GALLIANO*      NOT AVBL
NEW ROADS*       N/A     75  74  97 CALM      30.01R FOG
GONZALES*        N/A     77  77 100 CALM      30.00S
HAMMOND*       PTCLDY    79  73  83 CALM      30.02S
HOUMA*         PTCLDY    75  72  88 CALM      30.01S FOG
PORT FOURCHON* MOSUNNY   82  77  83 SW8       30.03S

$$

MSZ070-080>082-261000-
SOUTHERN MISSISSIPPI

CITY           SKY/WX    TMP DP  RH WIND       PRES   REMARKS
MCCOMB         PTCLDY    75  73  93 CALM      30.02R FOG
GULFPORT       CLEAR     80  75  84 CALM      30.00S
BILOXI         CLEAR     79  76  92 W5        30.00S
PASCAGOULA     CLEAR     75  74  96 CALM      30.00S FOG

$$

COASTAL OBSERVATIONS
LAKE AND NEARSHORE STATIONS

STATION/POSITION TIME  TEMP    WIND        PRES    WAVE
                       AIR SEA DIR/SP/G            HT/PER
                 (UTC) (F)     (DEG/KT/KT) (MB)    (FT/S)
PASCAGOULA       0820   82     260/  9/ 12 1015.3
WAVELAND YACHT   0820   79     260/  2/  3 1015.4
GRAND ISLE       0820   82 86  230/  5/  7 1017.0
SOUTHWEST PASS   0820   83 84  250/ 16/ 17 1016.7
NEW CANAL        0820   81 83  230/  5/  7 1016.6
SHELL BEACH      0820   81 81  270/  6/  6 1016.2

OFFSHORE STATIONS

STATION/POSITION TIME  TEMP    WIND        PRES    WAVE
                       AIR SEA DIR/SP/G            HT/PER
                 (UTC) (F)     (DEG/KT/KT) (MB)    (FT/S)
64 S DAUPHIN ISL 0814   83 85  250/ 14/ 16 1016.5

$$




USA.gov is the U.S. government's official web portal to all federal, state and local government web resources and services.